Orbital Elements at Epoch 2459200.5 (2020-Dec-17.0) TDB
Reference: JPL 9 (heliocentric ecliptic J2000)
Element | Value | Uncertainty (1-sigma) | Units |
e | .6081409685766062 | 0.00047746 | |
a | 100.0362360762587 | 0.12786 | au |
q | 39.20010257608469 | 0.0042604 | au |
i | 23.30483910611661 | 0.00084366 | deg |
node | 326.9833047187068 | 0.00057561 | deg |
peri | 349.0091812287479 | 0.021948 | deg |
M | 11.43909301232848 | 0.022401 | deg |
tp | 2447588.058703260311 (1989-Mar-02.55870326) | 3.923 | TDB |
period | 365455.4484626339 1000.56 | 700.67 1.918 | d yr |
n | .0009850721928333988 | 1.8886e-06 | deg/d |
Q | 160.8723695764326 | 0.20562 | au |
|
| | Orbit Determination Parameters
Additional Information
|